Regional Weather Roundup
Issued by NWS

Home | Current Version | Previous Version | Graphics & Text | Print | Product List | Glossary On
Versions: 1 2 3 4 5 6 7 8 9 10 11 12 13 14 15 16 17 18 19 20 21 22 23 24 25 26 27 28 29 30 31 32 33 34 35 36 37 38 39 40 41 42 43 44 45 46 47 48 49 50
000
ASUS43 KLOT 210110
RWRIL

ILLINOIS REGIONAL WEATHER ROUNDUP
NATIONAL WEATHER SERVICE CHICAGO/ROMEOVILLE IL
800 PM CDT MON OCT 20 2014

NOTE: "FAIR" INDICATES FEW OR NO CLOUDS BELOW 12,000 FEET WITH NO
SIGNIFICANT WEATHER AND/OR OBSTRUCTIONS TO VISIBILITY.

* THESE STATIONS ARE NOT UNDER NWS QUALITY CONTROL. THEY ALSO MAY NOT
  REPORT WEATHER SUCH AS PRECIPITATION OR FOG.

ILZ001-002-007-009-015-016-024-210200-
NORTHWEST ILLINOIS

CITY           SKY/WX    TMP DP  RH WIND       PRES   REMARKS
MOLINE         CLEAR     52  42  69 CALM      29.97R
STERLING*      CLEAR     55  43  62 NE8       29.98R
SAVANNA*       MOCLDY    56  42  59 N3        29.98R
$$

ILZ003-004-008-010-011-017-018-210200-
NORTH CENTRAL ILLINOIS

CITY           SKY/WX    TMP DP  RH WIND       PRES   REMARKS
ROCKFORD       PTCLDY    53  39  59 NE9       30.01R
FREEPORT*      MOCLDY    49  40  72 CALM      30.01R
ROCHELLE*      CLOUDY    53  41  65 NE9       29.99R
DE KALB*       CLOUDY    52  39  61 N7        29.99R
PERU*          PTCLDY    53  43  67 NW6       29.97S
$$

ILZ005-006-012>014-019>023-210200-
NORTHEAST ILLINOIS

CITY           SKY/WX    TMP DP  RH WIND       PRES   REMARKS
CHICAGO-OHARE  MOCLDY    53  45  74 N9        29.97R
CHICAGO-MIDWAY CLOUDY    56  47  71 N8        29.97R
AURORA         CLOUDY    56  40  55 N8        29.98R
LANSING*       CLOUDY    54  48  81 N9        29.97R
JOLIET*        CLOUDY    55  42  61 N5        29.97R
WAUKEGAN       CLOUDY    52  42  69 NW3       29.98R
DUPAGE AIRPORT CLOUDY    54  42  64 N10       29.97R
KANKAKEE*      MOCLDY    53  48  83 N5        29.96S
WHEELING       CLOUDY    54  42  64 N9        29.99R
MORRIS*        CLOUDY    53  45  73 N3        29.96R
ROMEOVILLE*    CLOUDY    55  41  57 N6        29.97R
NORTHERLY ISL    N/A     54  47  77 N10         N/A
$$

LMZ740>746-210200-
SOUTHERN LAKE MICHIGAN

STATION/POSITION SKY/WX   TEMP    WIND        PRES    VSBY  WAVE
                          AIR SEA DIR/SP/G                  HT/PER
                          (F)     (DEG/KT/KT) (MB)    (MI)  (FT/S)
SOUTHERN BUOY              51 55  360/ 17/ 21 1014.8R         4/ 5
WAUKEGAN HARBOR            53     330/  9/ 12   N/A
HARRISON CRIB              54     340/ 15/ 16   N/A
BURNHAM HARBOR             54     360/  8/ 11   N/A
CALUMET HARBOR             54                   N/A
MICHIGAN CITY              53     340/ 19/ 22   N/A
$$

ILZ025>027-034>036-040-047-049-050-058-095>099-210200-
WEST-CENTRAL ILLINOIS

CITY           SKY/WX    TMP DP  RH WIND       PRES   REMARKS
QUINCY         CLEAR     59  43  55 W5        30.00R
GALESBURG*     CLEAR     52  42  68 W5        29.98R
MACOMB*        CLEAR     49  42  76 W5        30.01R
JACKSONVILLE*  CLEAR     55  44  65 W5        29.99S
PITTSFIELD*    CLEAR     57  44  61 W3        30.02R
$$

ILZ028>032-037-038-041>044-048-051>054-059>061-210200-
CENTRAL ILLINOIS

CITY           SKY/WX    TMP DP  RH WIND       PRES   REMARKS
PONTIAC        MOCLDY    57  46  67 NW3       29.96R
BLOOMINGTON    PTCLDY    55  45  69 NW6       29.98R
DECATUR        CLEAR     60  44  55 NW9       29.97R
PEORIA         PTCLDY    55  46  71 CALM      29.97R
LACON*         CLEAR     48  44  85 CALM      29.96S
LINCOLN*       CLEAR     57  45  64 CALM      29.96R
SPRINGFIELD    CLEAR     55  44  66 W5        29.98S
TAYLORVILLE    CLEAR     54  43  66 W5        29.98R
$$

ILZ033-039-045-046-055>057-062-063-210200-
EAST-CENTRAL ILLINOIS

CITY           SKY/WX    TMP DP  RH WIND       PRES   REMARKS
CHAMPAIGN      CLEAR     52  43  71 W6        29.96R
DANVILLE*      CLEAR     54  44  68 NW7       29.92R
RANTOUL*       CLEAR     56  43  59 NW6       29.96S
MATTOON        CLEAR     53  43  68 NW7       29.96R
PARIS*         MOCLDY    55  47  73 NW5       29.96R
$$

ILZ079-100>102-210200-
SOUTHWEST ILLINOIS

CITY           SKY/WX    TMP DP  RH WIND       PRES   REMARKS
ALTON          CLEAR     57  41  54 NW6       30.01R
BELLEVILLE     CLEAR     59  45  58 NW5       29.99R
CAHOKIA*       CLEAR     62  44  51 NW8       30.00R
SPARTA*        CLEAR     62  43  49 N6        30.00R
$$

ILZ064>066-069>071-074>076-080>082-084>086-088>090-092>094-210200-
SOUTH-CENTRAL ILLINOIS

CITY           SKY/WX    TMP DP  RH WIND       PRES   REMARKS
CARBONDALE     CLEAR     61  46  57 N7        29.98R
CAIRO*         PTCLDY    59  53  79 CALM      29.98R
EFFINGHAM*     CLEAR     56  41  56 NW3       29.97S
MARION         CLEAR     66  45  45 N5        29.98R
MT. VERNON     CLEAR     54  45  71 CALM      29.99R
CENTRALIA*     CLEAR     60  42  52 NW6       29.99R
SALEM*         CLEAR     57  47  67 NW3       29.99R
METROPOLIS*    PTCLDY    61  56  82 CALM      29.97R
$$

ILZ067-068-072-073-078-083-087-091-210200-
SOUTHEAST ILLINOIS

CITY           SKY/WX    TMP DP  RH WIND       PRES   REMARKS
LAWRENCEVILLE  CLEAR     58  46  64 NW9       29.95R
FLORA*         CLEAR     59  44  56 NW6       29.98R
FAIRFIELD*     CLEAR     62  44  51 NW5       29.96R
HARRISBURG*    CLEAR     63  45  51 NW6       29.98R
ROBINSON*      CLEAR     59  47  63 NW6       29.96R
CARMI*         CLEAR     58  48  67 NW8       29.96R
$$

ABBREVIATIONS USED IN REMARKS
   TC - TEMPERATURE IN CELSIUS
  WCI - WIND CHILL INDEX
   HX - HEAT INDEX
  VSB - VISIBILITY
$$



USA.gov is the U.S. government's official web portal to all federal, state and local government web resources and services.